EZY49RE LGPZ-EGKK

Flight info

Callsign EZY49RE
Flight time N/A
Altitude 38000
Route MALED UM127 KRK UL995 TIGRA DCT DOLON DCT PIKEL DCT UVOKA DCT PISIP DCT AMLON DCT RESIA DCT ARGAX DCT LOKTA DCT TEDGO DCT KRH DCT LIRSU DCT SPI DCT NIK L610 TEBRA
Aircraft A20N/M-SDE2E3FGHIJ1RWXYZ/LB1G1

Departure

Time 2026-05-07 10:40
Airport Aktion National Airport (LGPZ)

Arrival

Time N/A
Airport London Gatwick Airport (EGKK)
Time Latitude Longitude Altitude Speed Heading
2026-05-07 10:24 38.93027 20.77240 16 ft 0 kts 339°
2026-05-07 10:30 38.93026 20.77240 16 ft 1 kts 339°
2026-05-07 10:31 38.93012 20.77247 16 ft 2 kts 339°
2026-05-07 10:31 38.92998 20.77254 16 ft 2 kts 339°
2026-05-07 10:31 38.92984 20.77261 16 ft 2 kts 339°
2026-05-07 10:31 38.92970 20.77268 16 ft 2 kts 339°
2026-05-07 10:32 38.92956 20.77275 16 ft 1 kts 346°
2026-05-07 10:32 38.92942 20.77271 16 ft 2 kts 46°
2026-05-07 10:32 38.92938 20.77263 16 ft 0 kts 74°
2026-05-07 10:32 38.92937 20.77256 15 ft 0 kts 68°
2026-05-07 10:36 38.92938 20.77259 16 ft 1 kts 68°
2026-05-07 10:36 38.92938 20.77288 15 ft 5 kts 104°
2026-05-07 10:36 38.92901 20.77329 15 ft 9 kts 159°
2026-05-07 10:36 38.92838 20.77382 14 ft 12 kts 89°
2026-05-07 10:37 38.92871 20.77499 14 ft 15 kts 68°
2026-05-07 10:37 38.92915 20.77634 15 ft 17 kts 68°
2026-05-07 10:37 38.92919 20.77753 16 ft 14 kts 146°
2026-05-07 10:37 38.92831 20.77820 16 ft 14 kts 96°
2026-05-07 10:38 38.92858 20.77914 17 ft 12 kts 68°
2026-05-07 10:38 38.92896 20.78033 15 ft 15 kts 68°
2026-05-07 10:38 38.92949 20.78106 14 ft 11 kts 341°
2026-05-07 10:38 38.92999 20.78038 16 ft 10 kts 309°
2026-05-07 10:39 38.93023 20.77974 17 ft 0 kts 248°
2026-05-07 10:39 38.92944 20.77723 16 ft 66 kts 248°
2026-05-07 10:39 38.92687 20.76911 12 ft 128 kts 248°
2026-05-07 10:40 38.92282 20.75615 47 ft 174 kts 249°
2026-05-07 10:40 38.91855 20.74246 702 ft 164 kts 248°
2026-05-07 10:40 38.91573 20.72809 1218 ft 169 kts 273°
2026-05-07 10:40 38.91692 20.71311 1789 ft 172 kts 278°
2026-05-07 10:41 38.91865 20.69751 2204 ft 186 kts 278°
2026-05-07 10:41 38.92042 20.68054 2550 ft 201 kts 277°
2026-05-07 10:41 38.92220 20.66196 2893 ft 218 kts 276°
2026-05-07 10:41 38.92397 20.64215 3349 ft 229 kts 276°
2026-05-07 10:42 38.92621 20.62140 3824 ft 242 kts 285°
2026-05-07 10:42 38.93430 20.60213 4300 ft 256 kts 314°
2026-05-07 10:42 38.94823 20.58696 4798 ft 270 kts 323°
2026-05-07 10:42 38.96366 20.57258 5395 ft 281 kts 324°
2026-05-07 10:43 38.97934 20.55767 6166 ft 284 kts 322°
2026-05-07 10:43 38.99491 20.54229 6944 ft 287 kts 321°
2026-05-07 10:43 39.01058 20.52635 7727 ft 290 kts 319°
2026-05-07 10:43 39.02630 20.51002 8537 ft 292 kts 319°
2026-05-07 10:44 39.04194 20.49359 9345 ft 293 kts 318°
2026-05-07 10:44 39.05769 20.47697 10095 ft 296 kts 317°
2026-05-07 10:44 39.07377 20.45992 10750 ft 303 kts 317°
2026-05-07 10:44 39.09026 20.44238 11214 ft 316 kts 316°
2026-05-07 10:45 39.10733 20.42424 11888 ft 320 kts 316°
2026-05-07 10:45 39.12458 20.40609 12671 ft 320 kts 316°
2026-05-07 10:45 39.14181 20.38790 13421 ft 321 kts 315°
2026-05-07 10:45 39.15886 20.36981 14113 ft 323 kts 315°
2026-05-07 10:46 39.17619 20.35134 14800 ft 325 kts 315°
2026-05-07 10:46 39.19405 20.33221 15466 ft 329 kts 314°
2026-05-07 10:46 39.21145 20.31350 16063 ft 332 kts 314°
2026-05-07 10:46 39.22937 20.29447 16676 ft 336 kts 315°
2026-05-07 10:47 39.24758 20.27564 17289 ft 339 kts 316°
2026-05-07 10:47 39.26618 20.25650 17936 ft 340 kts 316°
2026-05-07 10:47 39.28450 20.23767 18543 ft 343 kts 316°
2026-05-07 10:47 39.30323 20.21834 19134 ft 345 kts 316°
2026-05-07 10:48 39.32215 20.19884 19705 ft 348 kts 316°
2026-05-07 10:48 39.34085 20.17954 20267 ft 351 kts 316°
2026-05-07 10:48 39.36001 20.15974 20814 ft 354 kts 316°
2026-05-07 10:48 39.37933 20.13976 21352 ft 356 kts 316°
2026-05-07 10:49 39.39883 20.11954 21870 ft 360 kts 316°
2026-05-07 10:49 39.41827 20.09936 22377 ft 362 kts 316°
2026-05-07 10:49 39.43707 20.07771 22889 ft 362 kts 311°
2026-05-07 10:49 39.45421 20.05388 23393 ft 362 kts 306°
2026-05-07 10:50 39.46979 20.02823 23921 ft 362 kts 303°
2026-05-07 10:50 39.48539 20.00140 24433 ft 364 kts 303°
2026-05-07 10:50 39.50071 19.97484 24955 ft 365 kts 303°
2026-05-07 10:50 39.51602 19.94828 25214 ft 373 kts 303°
2026-05-07 10:51 39.53185 19.92083 25484 ft 379 kts 303°
2026-05-07 10:51 39.54782 19.89316 25904 ft 382 kts 303°
2026-05-07 10:51 39.56377 19.86549 26387 ft 382 kts 303°
2026-05-07 10:51 39.57983 19.83772 26836 ft 383 kts 303°
2026-05-07 10:52 39.59585 19.80992 27275 ft 384 kts 303°
2026-05-07 10:52 39.61166 19.78246 27694 ft 384 kts 303°
2026-05-07 10:52 39.62770 19.75456 28064 ft 386 kts 303°
2026-05-07 10:52 39.64376 19.72657 28416 ft 388 kts 302°
2026-05-07 10:53 39.65980 19.69861 28810 ft 389 kts 303°
2026-05-07 10:53 39.67602 19.67034 29185 ft 390 kts 303°
2026-05-07 10:53 39.69223 19.64213 29533 ft 391 kts 303°
2026-05-07 10:53 39.70847 19.61381 29872 ft 393 kts 303°
2026-05-07 10:54 39.72475 19.58535 30168 ft 395 kts 303°
2026-05-07 10:54 39.74102 19.55694 30473 ft 396 kts 303°
2026-05-07 10:54 39.75747 19.52813 30833 ft 396 kts 303°
2026-05-07 10:54 39.77370 19.49965 31194 ft 395 kts 303°
2026-05-07 10:55 39.79002 19.47105 31511 ft 396 kts 303°
2026-05-07 10:55 39.80647 19.44223 31749 ft 398 kts 303°
2026-05-07 10:55 39.82306 19.41305 32002 ft 399 kts 303°
2026-05-07 10:55 39.83961 19.38400 32273 ft 400 kts 303°
2026-05-07 10:56 39.85600 19.35511 32591 ft 398 kts 303°
2026-05-07 10:56 39.87243 19.32619 33037 ft 394 kts 302°
2026-05-07 10:56 39.88855 19.29762 33464 ft 391 kts 303°
2026-05-07 10:56 39.90451 19.26938 33766 ft 389 kts 303°
2026-05-07 10:57 39.92043 19.24114 34169 ft 386 kts 302°
2026-05-07 10:57 39.93614 19.21337 34503 ft 384 kts 303°
2026-05-07 10:57 39.95203 19.18534 34771 ft 383 kts 303°
2026-05-07 10:57 39.96757 19.15781 35051 ft 381 kts 302°
2026-05-07 10:58 39.98335 19.12986 35305 ft 380 kts 303°
2026-05-07 10:58 39.99896 19.10212 35595 ft 378 kts 303°
2026-05-07 10:58 40.01437 19.07487 35870 ft 376 kts 303°
2026-05-07 10:58 40.02983 19.04732 36140 ft 373 kts 303°
2026-05-07 10:59 40.04496 19.02043 36473 ft 369 kts 303°
2026-05-07 10:59 40.06028 18.99377 36771 ft 366 kts 304°
2026-05-07 10:59 40.07591 18.96786 36996 ft 364 kts 304°
2026-05-07 10:59 40.09152 18.94194 37198 ft 362 kts 303°
2026-05-07 11:00 40.10705 18.91619 37410 ft 360 kts 303°
2026-05-07 11:00 40.12250 18.89078 37564 ft 359 kts 305°
2026-05-07 11:00 40.13795 18.86552 37707 ft 358 kts 303°
2026-05-07 11:00 40.15343 18.83984 37552 ft 359 kts 304°
2026-05-07 11:01 40.18431 18.78868 37731 ft 360 kts 304°
2026-05-07 11:01 40.19983 18.76307 37899 ft 359 kts 303°
2026-05-07 11:01 40.21520 18.73749 37983 ft 360 kts 303°
2026-05-07 11:02 40.24610 18.68596 38066 ft 362 kts 303°
2026-05-07 11:02 40.27723 18.63397 38061 ft 365 kts 303°
2026-05-07 11:03 40.30833 18.58196 38064 ft 364 kts 304°
2026-05-07 11:03 40.33947 18.52980 38057 ft 364 kts 304°
2026-05-07 11:04 40.37020 18.47830 38050 ft 366 kts 303°
2026-05-07 11:04 40.40139 18.42583 38052 ft 365 kts 303°
2026-05-07 11:05 40.43263 18.37329 38052 ft 365 kts 303°
2026-05-07 11:05 40.46373 18.32083 38052 ft 367 kts 302°
2026-05-07 11:06 40.49501 18.26769 38047 ft 368 kts 303°
2026-05-07 11:06 40.52636 18.21463 38044 ft 368 kts 303°
2026-05-07 11:07 40.55767 18.16162 38048 ft 369 kts 302°
2026-05-07 11:07 40.58897 18.10835 38047 ft 367 kts 303°
2026-05-07 11:08 40.62023 18.05523 38044 ft 370 kts 302°
2026-05-07 11:08 40.65176 18.00147 38044 ft 370 kts 303°
2026-05-07 11:09 40.68308 17.94807 38053 ft 371 kts 303°
2026-05-07 11:09 40.71464 17.89421 38041 ft 371 kts 303°
2026-05-07 11:10 40.74603 17.84050 38042 ft 372 kts 302°
2026-05-07 11:10 40.77769 17.78619 38039 ft 374 kts 303°
2026-05-07 11:11 40.80919 17.73212 38038 ft 371 kts 303°
2026-05-07 11:11 40.84039 17.67844 38031 ft 371 kts 302°
2026-05-07 11:12 40.87168 17.62442 38034 ft 370 kts 303°
2026-05-07 11:12 40.90465 17.57160 38034 ft 375 kts 306°
2026-05-07 11:13 40.93915 17.52069 38028 ft 372 kts 307°
2026-05-07 11:13 40.97351 17.47013 38023 ft 371 kts 306°
2026-05-07 11:14 41.00825 17.41885 38019 ft 374 kts 307°
2026-05-07 11:14 41.04269 17.36801 38019 ft 371 kts 307°
2026-05-07 11:15 41.07698 17.31718 38030 ft 370 kts 306°
2026-05-07 11:15 41.11141 17.26611 38029 ft 372 kts 306°
2026-05-07 11:16 41.14587 17.21527 38027 ft 370 kts 306°
2026-05-07 11:16 41.18013 17.16442 38022 ft 373 kts 306°
2026-05-07 11:17 41.21418 17.11342 38019 ft 370 kts 305°
2026-05-07 11:17 41.24834 17.06207 38020 ft 372 kts 305°
2026-05-07 11:18 41.28229 17.01090 38018 ft 370 kts 306°
2026-05-07 11:18 41.31638 16.95946 38012 ft 373 kts 305°
2026-05-07 11:19 41.35066 16.90760 38011 ft 374 kts 306°
2026-05-07 11:19 41.38492 16.85586 38010 ft 372 kts 305°
2026-05-07 11:20 41.41915 16.80429 38015 ft 373 kts 306°
2026-05-07 11:20 41.45343 16.75263 38007 ft 374 kts 305°
2026-05-07 11:21 41.48793 16.70058 38002 ft 375 kts 305°
2026-05-07 11:21 41.52231 16.64889 38005 ft 376 kts 307°
2026-05-07 11:22 41.55969 16.59970 38005 ft 379 kts 310°
2026-05-07 11:22 41.59791 16.55159 38005 ft 380 kts 310°
2026-05-07 11:23 41.63625 16.50334 38004 ft 381 kts 310°
2026-05-07 11:23 41.67493 16.45459 37998 ft 381 kts 310°
2026-05-07 11:24 41.71349 16.40596 38003 ft 383 kts 310°
2026-05-07 11:24 41.75196 16.35731 38004 ft 384 kts 310°
2026-05-07 11:25 41.79099 16.30770 38008 ft 386 kts 309°
2026-05-07 11:25 41.82987 16.25825 38002 ft 386 kts 309°
2026-05-07 11:26 41.86860 16.20889 38006 ft 387 kts 310°
2026-05-07 11:26 41.90768 16.15913 38003 ft 388 kts 310°
2026-05-07 11:27 41.94677 16.10922 38090 ft 390 kts 310°
2026-05-07 11:27 41.96662 16.08392 37872 ft 391 kts 310°
2026-05-07 11:27 41.98621 16.05892 38043 ft 389 kts 310°
2026-05-07 11:28 42.02537 16.00878 38012 ft 390 kts 310°
2026-05-07 11:28 42.06460 15.95849 38002 ft 391 kts 310°
2026-05-07 11:29 42.08406 15.93350 37820 ft 391 kts 310°
2026-05-07 11:29 42.10381 15.90811 37866 ft 390 kts 310°
2026-05-07 11:29 42.14302 15.85802 37976 ft 391 kts 310°
2026-05-07 11:30 42.18253 15.80739 37995 ft 391 kts 310°
2026-05-07 11:30 42.22178 15.75680 37993 ft 390 kts 310°
2026-05-07 11:31 42.26079 15.70640 37998 ft 391 kts 310°
2026-05-07 11:31 42.30006 15.65551 38006 ft 391 kts 310°
2026-05-07 11:32 42.35890 15.57908 37997 ft 392 kts 310°
2026-05-07 11:33 42.39784 15.52841 37998 ft 392 kts 310°
2026-05-07 11:33 42.43715 15.47714 38002 ft 391 kts 309°
2026-05-07 11:34 42.47613 15.42617 37982 ft 392 kts 310°
2026-05-07 11:34 42.51534 15.37484 37998 ft 392 kts 310°
2026-05-07 11:35 42.55430 15.32370 37994 ft 391 kts 309°
2026-05-07 11:35 42.59347 15.27200 37996 ft 392 kts 309°
2026-05-07 11:36 42.63236 15.22068 37990 ft 392 kts 309°
2026-05-07 11:36 42.67137 15.16919 37990 ft 392 kts 309°
2026-05-07 11:37 42.71040 15.11761 37991 ft 392 kts 309°
2026-05-07 11:37 42.74936 15.06602 37989 ft 393 kts 309°
2026-05-07 11:38 42.78841 15.01427 37998 ft 393 kts 309°
2026-05-07 11:38 42.82766 14.96208 37989 ft 393 kts 309°
2026-05-07 11:39 42.86648 14.91045 37990 ft 393 kts 308°
2026-05-07 11:39 42.90559 14.85827 37986 ft 393 kts 309°
2026-05-07 11:40 42.94455 14.80622 37994 ft 393 kts 309°
2026-05-07 11:40 42.98333 14.75431 37992 ft 394 kts 309°
2026-05-07 11:41 43.02260 14.70167 37990 ft 394 kts 309°
2026-05-07 11:41 43.06170 14.64913 37986 ft 395 kts 309°
2026-05-07 11:42 43.10014 14.59740 37984 ft 396 kts 309°
2026-05-07 11:42 43.13996 14.54405 37983 ft 396 kts 309°
2026-05-07 11:43 43.17923 14.49126 37984 ft 396 kts 309°
2026-05-07 11:43 43.21864 14.43802 37986 ft 397 kts 309°
2026-05-07 11:44 43.25769 14.38509 37984 ft 398 kts 309°
2026-05-07 11:44 43.29684 14.33189 37985 ft 397 kts 308°
2026-05-07 11:45 43.33589 14.27848 37982 ft 397 kts 308°
2026-05-07 11:45 43.37503 14.22497 37991 ft 398 kts 308°
2026-05-07 11:46 43.41419 14.17143 37984 ft 398 kts 308°
2026-05-07 11:46 43.45351 14.11752 37984 ft 399 kts 308°
2026-05-07 11:47 43.49257 14.06391 37988 ft 400 kts 308°
2026-05-07 11:47 43.53194 14.00980 37983 ft 399 kts 308°
2026-05-07 11:48 43.57111 13.95582 37989 ft 399 kts 308°
2026-05-07 11:48 43.61029 13.90176 37977 ft 400 kts 308°
2026-05-07 11:49 43.64949 13.84756 37983 ft 402 kts 308°
2026-05-07 11:49 43.68885 13.79300 37978 ft 401 kts 308°
2026-05-07 11:50 43.72827 13.73829 37979 ft 402 kts 308°
2026-05-07 11:50 43.76747 13.68376 37976 ft 402 kts 308°
2026-05-07 11:51 43.80684 13.62889 37968 ft 401 kts 308°
2026-05-07 11:51 43.84586 13.57440 37979 ft 402 kts 308°
2026-05-07 11:52 43.88514 13.51942 37973 ft 402 kts 308°
2026-05-07 11:52 43.92438 13.46441 37974 ft 402 kts 308°
2026-05-07 11:53 43.96357 13.40935 37973 ft 403 kts 308°
2026-05-07 11:53 44.00280 13.35416 37971 ft 403 kts 308°
2026-05-07 11:54 44.04226 13.29831 37968 ft 403 kts 307°
2026-05-07 11:54 44.08118 13.24313 37954 ft 403 kts 307°
2026-05-07 11:55 44.12069 13.18729 37957 ft 404 kts 307°
2026-05-07 11:55 44.15995 13.13195 37965 ft 404 kts 307°
2026-05-07 11:56 44.19928 13.07620 37954 ft 404 kts 307°
2026-05-07 11:56 44.23860 13.02025 37975 ft 404 kts 307°
2026-05-07 11:57 44.27763 12.96456 37986 ft 406 kts 307°
2026-05-07 11:57 44.31707 12.90814 38010 ft 405 kts 307°
2026-05-07 11:58 44.35757 12.85322 38003 ft 409 kts 310°
2026-05-07 11:58 44.39966 12.80016 37967 ft 409 kts 311°
2026-05-07 11:59 44.44173 12.74721 37971 ft 409 kts 311°
2026-05-07 11:59 44.48393 12.69395 37982 ft 410 kts 311°
2026-05-07 12:00 44.52636 12.64026 37960 ft 410 kts 311°
2026-05-07 12:00 44.56863 12.58667 37946 ft 411 kts 311°
2026-05-07 12:01 44.61075 12.53316 37983 ft 412 kts 311°
2026-05-07 12:01 44.65296 12.47942 37948 ft 412 kts 311°
2026-05-07 12:02 44.69530 12.42543 37972 ft 411 kts 311°
2026-05-07 12:02 44.73742 12.37158 37958 ft 412 kts 311°
2026-05-07 12:03 44.78005 12.31684 37963 ft 413 kts 310°
2026-05-07 12:03 44.82219 12.26248 37954 ft 414 kts 310°
2026-05-07 12:04 44.86490 12.20742 37966 ft 415 kts 310°
2026-05-07 12:04 44.90722 12.15287 37968 ft 414 kts 310°
2026-05-07 12:05 44.94951 12.09819 37962 ft 415 kts 310°
2026-05-07 12:05 44.99215 12.04297 37954 ft 416 kts 311°
2026-05-07 12:06 45.03473 11.98774 37951 ft 417 kts 311°
2026-05-07 12:06 45.07724 11.93247 37971 ft 417 kts 311°
2026-05-07 12:07 45.12012 11.87673 37967 ft 417 kts 311°
2026-05-07 12:07 45.16283 11.82135 37966 ft 417 kts 311°
2026-05-07 12:08 45.20541 11.76584 37955 ft 417 kts 311°
2026-05-07 12:08 45.24813 11.70994 37960 ft 418 kts 311°
2026-05-07 12:09 45.29067 11.65406 37962 ft 418 kts 311°
2026-05-07 12:09 45.33321 11.59806 37961 ft 418 kts 311°
2026-05-07 12:10 45.37574 11.54194 37954 ft 419 kts 311°
2026-05-07 12:10 45.41837 11.48555 37954 ft 419 kts 311°
2026-05-07 12:11 45.46103 11.42901 37957 ft 419 kts 311°
2026-05-07 12:11 45.50332 11.37287 37954 ft 419 kts 311°
2026-05-07 12:12 45.54578 11.31623 37954 ft 419 kts 311°
2026-05-07 12:12 45.58836 11.25921 37967 ft 419 kts 311°
2026-05-07 12:13 45.63097 11.20215 37975 ft 420 kts 311°
2026-05-07 12:13 45.67336 11.14531 38015 ft 420 kts 311°
2026-05-07 12:14 45.71594 11.08812 37982 ft 421 kts 311°
2026-05-07 12:14 45.75841 11.03095 37976 ft 421 kts 311°
2026-05-07 12:15 45.80115 10.97333 37972 ft 421 kts 311°
2026-05-07 12:15 45.84358 10.91598 37973 ft 422 kts 311°
2026-05-07 12:16 45.88630 10.85813 37990 ft 422 kts 311°
2026-05-07 12:16 45.92876 10.80051 37981 ft 422 kts 311°
2026-05-07 12:17 45.97126 10.74269 37983 ft 422 kts 311°
2026-05-07 12:17 46.01405 10.68435 37976 ft 422 kts 312°
2026-05-07 12:18 46.05642 10.62644 37975 ft 423 kts 312°
2026-05-07 12:18 46.09919 10.56785 37975 ft 423 kts 312°
2026-05-07 12:19 46.14190 10.50957 37983 ft 424 kts 312°
2026-05-07 12:19 46.18479 10.45086 37995 ft 424 kts 312°
2026-05-07 12:20 46.22732 10.39232 38013 ft 424 kts 312°
2026-05-07 12:20 46.26983 10.33358 38023 ft 423 kts 311°
2026-05-07 12:21 46.31191 10.27505 38026 ft 423 kts 311°
2026-05-07 12:21 46.35445 10.21590 38024 ft 423 kts 311°
2026-05-07 12:22 46.39677 10.15703 38019 ft 423 kts 311°
2026-05-07 12:22 46.43910 10.09805 38006 ft 423 kts 312°
2026-05-07 12:23 46.48151 10.03924 38017 ft 424 kts 313°
2026-05-07 12:23 46.52544 9.98228 38038 ft 424 kts 314°
2026-05-07 12:24 46.56955 9.92549 38049 ft 425 kts 314°
2026-05-07 12:24 46.61386 9.86831 38066 ft 424 kts 314°
2026-05-07 12:25 46.65779 9.81143 38040 ft 424 kts 314°
2026-05-07 12:25 46.70170 9.75445 38018 ft 424 kts 314°
2026-05-07 12:26 46.74549 9.69750 37999 ft 423 kts 314°
2026-05-07 12:26 46.78942 9.64023 38001 ft 423 kts 314°
2026-05-07 12:27 46.83336 9.58284 38010 ft 424 kts 314°
2026-05-07 12:27 46.87696 9.52577 38025 ft 424 kts 314°
2026-05-07 12:28 46.92101 9.46800 38045 ft 424 kts 315°
2026-05-07 12:28 46.96466 9.41058 38048 ft 424 kts 315°
2026-05-07 12:29 47.01033 9.35552 38033 ft 427 kts 323°
2026-05-07 12:29 47.06303 9.31453 38022 ft 433 kts 334°
2026-05-07 12:30 47.12133 9.29102 38009 ft 439 kts 347°
2026-05-07 12:30 47.18267 9.28298 38015 ft 443 kts 352°
2026-05-07 12:31 47.24409 9.27726 38029 ft 443 kts 352°
2026-05-07 12:31 47.30559 9.27127 38025 ft 443 kts 352°
2026-05-07 12:32 47.36713 9.26508 38026 ft 443 kts 352°
2026-05-07 12:32 47.42874 9.25882 38025 ft 442 kts 352°
2026-05-07 12:33 47.52043 9.24943 38022 ft 442 kts 352°
2026-05-07 12:33 47.58154 9.24315 38018 ft 442 kts 353°
2026-05-07 12:34 47.64280 9.23686 38019 ft 442 kts 353°
2026-05-07 12:34 47.70418 9.23053 38015 ft 443 kts 353°
2026-05-07 12:35 47.76584 9.22418 38018 ft 442 kts 353°
2026-05-07 12:35 47.82695 9.21790 38013 ft 441 kts 353°
2026-05-07 12:36 47.88779 9.21160 38013 ft 441 kts 353°
2026-05-07 12:36 47.94908 9.20525 38007 ft 442 kts 353°
2026-05-07 12:37 48.01044 9.19893 38004 ft 442 kts 353°
2026-05-07 12:37 48.07193 9.19253 38005 ft 442 kts 353°
2026-05-07 12:38 48.13275 9.18079 37995 ft 440 kts 346°
2026-05-07 12:38 48.19194 9.15792 37999 ft 437 kts 339°
2026-05-07 12:39 48.24809 9.12463 37994 ft 434 kts 332°
2026-05-07 12:39 48.30240 9.08596 37997 ft 433 kts 331°
2026-05-07 12:40 48.35670 9.04685 37998 ft 433 kts 331°
2026-05-07 12:40 48.41102 9.00774 38000 ft 434 kts 332°
2026-05-07 12:41 48.46542 8.96856 38004 ft 434 kts 332°
2026-05-07 12:41 48.51967 8.92943 38007 ft 434 kts 332°
2026-05-07 12:42 48.57411 8.89006 38009 ft 434 kts 332°
2026-05-07 12:42 48.62844 8.85068 38006 ft 434 kts 332°
2026-05-07 12:43 48.68258 8.81135 38005 ft 434 kts 332°
2026-05-07 12:43 48.73684 8.77184 38002 ft 434 kts 332°
2026-05-07 12:44 48.79113 8.73224 38002 ft 434 kts 332°
2026-05-07 12:44 48.84552 8.69250 38003 ft 434 kts 332°
2026-05-07 12:45 48.89962 8.65283 38006 ft 435 kts 332°
2026-05-07 12:45 48.95257 8.60943 38008 ft 433 kts 326°
2026-05-07 12:46 49.00116 8.55630 38012 ft 430 kts 318°
2026-05-07 12:46 49.04453 8.49443 38016 ft 427 kts 311°
2026-05-07 12:47 49.08406 8.42695 38014 ft 427 kts 309°
2026-05-07 12:47 49.12304 8.35953 38021 ft 427 kts 310°
2026-05-07 12:48 49.16268 8.29103 38018 ft 428 kts 309°
2026-05-07 12:48 49.20186 8.22295 38020 ft 429 kts 309°
2026-05-07 12:49 49.24124 8.15440 38015 ft 428 kts 309°
2026-05-07 12:49 49.28032 8.08621 38017 ft 427 kts 309°
2026-05-07 12:50 49.31920 8.01822 38016 ft 427 kts 309°
2026-05-07 12:50 49.35844 7.94940 38021 ft 428 kts 309°
2026-05-07 12:51 49.39732 7.88101 38029 ft 428 kts 309°
2026-05-07 12:51 49.43626 7.81237 38025 ft 428 kts 309°
2026-05-07 12:52 49.47537 7.74324 38020 ft 428 kts 309°
2026-05-07 12:52 49.51456 7.67378 38019 ft 428 kts 309°
2026-05-07 12:53 49.55329 7.60495 38018 ft 428 kts 309°
2026-05-07 12:53 49.59222 7.53559 38021 ft 428 kts 309°
2026-05-07 12:54 49.63097 7.46635 38022 ft 428 kts 309°
2026-05-07 12:54 49.67001 7.39645 38025 ft 429 kts 309°
2026-05-07 12:55 49.70887 7.32661 38027 ft 429 kts 309°
2026-05-07 12:55 49.74764 7.25651 38026 ft 428 kts 309°
2026-05-07 12:56 49.78622 7.18671 38025 ft 428 kts 309°
2026-05-07 12:56 49.82488 7.11667 38023 ft 428 kts 309°
2026-05-07 12:57 49.86355 7.04648 38026 ft 428 kts 309°
2026-05-07 12:57 49.90219 6.97615 38036 ft 429 kts 309°
2026-05-07 12:58 49.94064 6.90600 38044 ft 429 kts 309°
2026-05-07 12:58 49.97907 6.83570 38046 ft 429 kts 309°
2026-05-07 12:59 50.01767 6.76491 38051 ft 428 kts 309°
2026-05-07 12:59 50.05607 6.69432 38041 ft 428 kts 309°
2026-05-07 13:00 50.09427 6.62395 38043 ft 427 kts 309°
2026-05-07 13:00 50.13282 6.55307 38043 ft 427 kts 309°
2026-05-07 13:01 50.17095 6.48224 38034 ft 427 kts 307°
2026-05-07 13:01 50.20546 6.40651 38031 ft 426 kts 302°
2026-05-07 13:02 50.23686 6.32818 38030 ft 426 kts 300°
2026-05-07 13:02 50.26817 6.24921 38034 ft 426 kts 300°
2026-05-07 13:03 50.29920 6.17105 38031 ft 426 kts 300°
2026-05-07 13:03 50.33037 6.09246 38032 ft 426 kts 300°
2026-05-07 13:04 50.36149 6.01381 38033 ft 426 kts 300°
2026-05-07 13:04 50.39264 5.93485 38027 ft 425 kts 300°
2026-05-07 13:05 50.42374 5.85583 38030 ft 425 kts 300°
2026-05-07 13:05 50.45470 5.77694 38031 ft 425 kts 300°
2026-05-07 13:06 50.48553 5.69813 38038 ft 425 kts 300°
2026-05-07 13:06 50.51687 5.61944 38043 ft 425 kts 303°
2026-05-07 13:07 50.55111 5.54416 38048 ft 426 kts 305°
2026-05-07 13:07 50.58606 5.46868 38048 ft 426 kts 305°
2026-05-07 13:08 50.62088 5.39321 38048 ft 426 kts 305°
2026-05-07 13:08 50.65559 5.31765 38050 ft 426 kts 304°
2026-05-07 13:09 50.69036 5.24148 38052 ft 426 kts 304°
2026-05-07 13:09 50.72480 5.16601 38049 ft 425 kts 304°
2026-05-07 13:10 50.75937 5.09007 38048 ft 425 kts 304°
2026-05-07 13:10 50.79390 5.01406 38046 ft 425 kts 304°
2026-05-07 13:11 50.82808 4.93859 38044 ft 425 kts 304°
2026-05-07 13:11 50.86255 4.86227 38044 ft 425 kts 304°
2026-05-07 13:12 50.89668 4.78649 38046 ft 426 kts 304°
2026-05-07 13:12 50.93085 4.71041 38054 ft 427 kts 304°
2026-05-07 13:13 50.96533 4.63345 38052 ft 426 kts 304°
2026-05-07 13:13 50.99944 4.55710 38059 ft 426 kts 304°
2026-05-07 13:14 51.03398 4.47958 38058 ft 426 kts 304°
2026-05-07 13:14 51.06792 4.40323 38059 ft 426 kts 304°
2026-05-07 13:15 51.10125 4.32793 38062 ft 426 kts 303°
2026-05-07 13:15 51.13377 4.24924 38060 ft 425 kts 298°
2026-05-07 13:16 51.15986 4.16472 38063 ft 424 kts 291°
2026-05-07 13:16 51.17871 4.07623 38063 ft 424 kts 283°
2026-05-07 13:17 51.19196 3.98415 38063 ft 424 kts 281°
2026-05-07 13:17 51.20430 3.89285 38062 ft 424 kts 281°
2026-05-07 13:18 51.21675 3.80076 38060 ft 423 kts 281°
2026-05-07 13:18 51.22904 3.70929 38060 ft 423 kts 281°
2026-05-07 13:19 51.24123 3.61804 38060 ft 423 kts 281°
2026-05-07 13:19 51.25213 3.52576 38056 ft 422 kts 274°
2026-05-07 13:20 51.24906 3.43244 38063 ft 421 kts 262°
2026-05-07 13:20 51.24138 3.34317 38064 ft 421 kts 261°
2026-05-07 13:21 51.23347 3.25060 38064 ft 421 kts 262°
2026-05-07 13:21 51.22567 3.15832 38063 ft 421 kts 262°
2026-05-07 13:22 51.21784 3.06582 38065 ft 421 kts 262°
2026-05-07 13:22 51.20999 2.97368 38067 ft 420 kts 262°
2026-05-07 13:23 51.20204 2.88120 38073 ft 421 kts 262°
2026-05-07 13:23 51.19407 2.78928 38069 ft 421 kts 262°